EW7144 Weather Reports


Display with metric or nautical units.
time (UTC)temp
F
wind
direction
speed
MPH
gust
MPH
rain 1hr
in
rain 24hr
in
rain mn
in
humidity
%
barometer
mb
20260904112406 53 228 10.0 21.0 0.00 0.00 0.00 76 1010.9
20260904111906 53 199 8.0 21.0 0.00 0.00 0.00 76 1010.8
20260904110906 53 226 7.0 20.0 0.00 0.00 0.00 75 1010.9
20260904110406 53 220 7.0 18.0 0.00 0.00 0.00 75 1011.0
20260904105907 53 216 8.0 20.0 0.00 0.00 0.00 74 1010.9
20260904105407 53 206 7.0 20.0 0.00 0.00 0.00 74 1011.0
20260904104907 53 300 9.0 26.0 0.00 0.00 0.00 74 1010.8
20260904103906 53 216 5.0 13.0 0.00 0.00 0.00 75 1010.7
20260904103406 53 209 7.0 24.0 0.00 0.00 0.00 74 1010.5
20260904102906 53 218 10.0 22.0 0.00 0.00 0.00 75 1010.4
20260904102410 53 259 10.0 24.0 0.00 0.00 0.00 75 1010.2
20260904101906 53 256 9.0 20.0 0.00 0.00 0.00 76 1010.2
20260904100906 53 223 10.0 22.0 0.00 0.00 0.00 75 1010.3
20260904100407 53 225 10.0 28.0 0.00 0.00 0.00 75 1010.3
20260904095907 53 226 7.0 20.0 0.00 0.00 0.00 75 1010.2
20260904094906 53 194 6.0 14.0 0.00 0.00 0.00 74 1010.0
20260904094406 53 222 10.0 21.0 0.00 0.00 0.00 74 1010.0
20260904093906 53 215 9.0 20.0 0.00 0.00 0.00 75 1009.9
20260904093406 53 233 8.0 18.0 0.00 0.00 0.00 74 1009.9
20260904091906 53 264 8.0 21.0 0.00 0.00 0.00 76 1009.7
20260904091406 53 214 11.0 21.0 0.00 0.00 0.00 76 1009.4
20260904090906 53 237 9.0 20.0 0.00 0.00 0.00 76 1009.6
20260904090406 53 244 12.0 23.0 0.00 0.00 0.00 75 1009.6
20260904085906 53 229 7.0 22.0 0.00 0.00 0.00 76 1009.5
20260904085406 53 226 9.0 25.0 0.00 0.00 0.00 75 1009.5
20260904084906 53 228 12.0 25.0 0.00 0.00 0.00 75 1009.3
20260904084406 53 204 7.0 24.0 0.00 0.00 0.00 76 1009.2
20260904083906 53 224 13.0 25.0 0.00 0.00 0.00 75 1009.2
20260904083406 53 206 11.0 23.0 0.00 0.00 0.00 76 1009.1
20260904082907 53 223 10.0 23.0 0.00 0.00 0.00 77 1008.9
20260904081906 53 239 9.0 28.0 0.00 0.00 0.00 79 1008.7
20260904081406 53 200 12.0 23.0 0.00 0.00 0.00 80 1008.5
20260904080906 53 245 9.0 26.0 0.00 0.00 0.00 80 1008.3
20260904080406 53 210 14.0 28.0 0.00 0.00 0.00 81 1007.9
20260904075906 53 214 14.0 30.0 0.00 0.00 0.00 81 1007.8
20260904075406 53 317 12.0 28.0 0.00 0.00 0.00 81 1007.7
20260904074906 52 219 10.0 26.0 0.00 0.00 0.00 82 1007.8
20260904074410 52 201 8.0 24.0 0.00 0.00 0.00 82 1007.7
20260904073406 51 214 9.0 25.0 0.00 0.00 0.00 81 1007.9
20260904072906 51 202 11.0 24.0 0.00 0.00 0.00 81 1007.8
20260904072406 51 206 11.0 26.0 0.00 0.00 0.00 81 1007.6
20260904071906 51 234 11.0 23.0 0.00 0.00 0.00 81 1007.6
20260904065406 50 214 18.0 32.0 0.00 0.00 0.00 84 1007.5
20260904064906 49 211 17.0 36.0 0.00 0.00 0.00 85 1007.3
20260904064406 49 217 15.0 32.0 0.00 0.00 0.00 86 1007.3
20260904063906 49 221 16.0 35.0 0.00 0.00 0.00 86 1007.3
20260904063406 49 248 15.0 26.0 0.00 0.00 0.00 87 1007.1
20260904062906 49 212 13.0 31.0 0.00 0.00 0.00 87 1007.2
20260904062406 49 222 13.0 28.0 0.00 0.00 0.00 86 1007.3
20260904061907 50 225 14.0 32.0 0.00 0.00 0.00 86 1007.6
20260904061406 50 201 12.0 29.0 0.00 0.00 0.00 85 1007.7
20260904060406 52 232 14.0 29.0 0.00 0.00 0.00 82 1007.9
20260904055906 54 283 14.0 25.0 0.00 0.00 0.00 81 1007.6
20260904055405 55 320 15.0 28.0 0.00 0.00 0.00 80 1007.3
20260904054906 55 321 10.0 22.0 0.00 0.00 0.00 81 1007.1
20260904054405 55 319 10.0 26.0 0.00 0.00 0.00 80 1006.9
20260904053406 55 300 11.0 23.0 0.00 0.00 0.00 80 1007.0
20260904052905 55 307 13.0 33.0 0.00 0.00 0.00 80 1007.0
20260904052406 55 236 12.0 26.0 0.00 0.00 0.00 80 1007.1
20260904051906 55 244 12.0 25.0 0.00 0.00 0.00 80 1007.0
20260904050906 54 233 9.0 21.0 0.00 0.00 0.00 81 1007.2
20260904050405 54 250 12.0 23.0 0.00 0.00 0.00 82 1007.1
20260904045906 54 235 12.0 28.0 0.00 0.00 0.00 83 1007.1
20260904045405 52 308 9.0 20.0 0.00 0.00 0.00 84 1007.1
20260904044906 51 301 9.0 20.0 0.00 0.00 0.00 85 1007.3
20260904044405 51 264 12.0 22.0 0.00 0.00 0.00 84 1007.3
20260904043905 51 252 11.0 26.0 0.00 0.00 0.00 84 1007.4
20260904043405 51 205 14.0 26.0 0.00 0.00 0.00 84 1007.5
20260904042406 54 235 16.0 37.0 0.00 0.00 0.00 83 1007.1
20260904041906 54 225 11.0 24.0 0.00 0.00 0.00 84 1006.6
20260904041406 55 264 11.0 22.0 0.00 0.00 0.00 84 1006.6
20260904040905 54 221 10.0 24.0 0.00 0.00 0.00 84 1006.7
20260904040406 54 272 12.0 22.0 0.00 0.00 0.00 81 1006.7
20260904035905 56 271 10.0 25.0 0.00 0.00 0.00 78 1007.2
20260904035405 58 317 13.0 29.0 0.00 0.00 0.00 75 1006.6
20260904034905 59 326 14.0 29.0 0.00 0.00 0.00 74 1006.6
20260904034405 59 341 10.0 26.0 0.00 0.00 0.00 73 1006.4
20260904033905 59 272 12.0 24.0 0.00 0.00 0.00 73 1006.2
20260904033406 59 295 12.0 26.0 0.00 0.00 0.00 74 1006.2
20260904032906 59 320 8.0 22.0 0.00 0.00 0.00 76 1005.9
20260904031906 57 293 9.0 20.0 0.00 0.00 0.00 76 1006.0
20260904031406 57 283 10.0 23.0 0.00 0.00 0.00 74 1006.1
20260904030905 58 322 13.0 23.0 0.00 0.00 0.00 73 1006.2
20260904030406 59 252 11.0 26.0 0.00 0.00 0.00 71 1006.0
20260904025406 59 302 10.0 24.0 0.00 0.00 0.00 71 1006.2
20260904024905 59 315 11.0 24.0 0.00 0.00 0.00 70 1005.9
20260904024406 59 300 12.0 24.0 0.00 0.00 0.00 70 1006.0
20260904023406 60 224 10.0 22.0 0.00 0.00 0.00 71 1005.8
20260904022905 59 296 11.0 26.0 0.00 0.00 0.00 71 1005.8
20260904022406 59 238 12.0 28.0 0.00 0.00 0.00 70 1005.8
20260904021905 59 225 13.0 30.0 0.00 0.00 0.00 70 1005.6
20260904021406 59 221 13.0 26.0 0.00 0.00 0.00 70 1005.6
20260904020906 60 259 10.0 29.0 0.00 0.00 0.00 71 1005.6
20260904020406 60 214 12.0 26.0 0.00 0.00 0.00 71 1005.6
20260904015905 59 332 9.0 22.0 0.00 0.00 0.00 70 1005.6
20260904015405 60 333 11.0 23.0 0.00 0.00 0.00 72 1005.7
20260904014906 60 317 10.0 26.0 0.00 0.00 0.00 73 1005.7
20260904014406 60 340 7.0 22.0 0.00 0.00 0.00 74 1005.8
20260904013905 60 327 10.0 20.0 0.00 0.00 0.00 73 1005.8
20260904013406 60 330 12.0 22.0 0.00 0.00 0.00 73 1005.9
20260904012906 60 331 10.0 20.0 0.00 0.00 0.00 72 1006.0
20260904011905 60 216 11.0 22.0 0.00 0.00 0.00 70 1006.1
20260904011406 60 324 12.0 26.0 0.00 0.00 0.00 70 1006.1
20260904010906 60 238 10.0 22.0 0.00 0.00 0.00 70 1006.1
20260904010405 60 336 9.0 20.0 0.00 0.00 0.00 69 1006.2
20260904005906 60 326 8.0 20.0 0.00 0.00 0.00 71 1006.3
20260904005406 59 285 8.0 20.0 0.00 0.00 0.00 71 1006.3
20260904004905 60 280 10.0 21.0 0.00 0.00 0.00 72 1006.4
20260904004406 60 311 10.0 24.0 0.00 0.00 0.00 73 1006.4
20260904003906 60 293 9.0 28.0 0.00 0.00 0.00 74 1006.2
20260904003406 59 298 12.0 22.0 0.00 0.00 0.00 73 1006.2
20260904002906 60 341 9.0 24.0 0.00 0.00 0.00 73 1006.2
20260904002405 60 291 9.0 24.0 0.00 0.00 0.00 74 1006.2
20260904001908 59 258 12.0 24.0 0.00 0.00 0.00 71 1006.1
20260904000906 59 332 12.0 26.0 0.00 0.00 0.00 72 1006.1
20260904000406 59 282 10.0 26.0 0.00 0.00 0.00 73 1005.9
20260903235907 59 320 7.0 29.0 0.00 0.00 0.00 75 1006.0
20260903235406 59 320 9.0 20.0 0.00 0.00 0.00 75 1005.9
20260903234906 59 294 10.0 23.0 0.00 0.00 0.00 74 1005.7
20260903234406 59 293 12.0 30.0 0.00 0.00 0.00 74 1005.5
20260903233906 59 313 10.0 21.0 0.00 0.00 0.00 75 1005.5
20260903233406 59 336 12.0 26.0 0.00 0.00 0.00 74 1005.3
20260903232906 59 318 11.0 29.0 0.00 0.00 0.00 75 1005.3
20260903231906 59 323 10.0 20.0 0.00 0.00 0.00 75 1005.3
20260903230905 59 236 9.0 18.0 0.00 0.00 0.00 74 1005.3
20260903225906 58 281 10.0 26.0 0.00 0.00 0.00 77 1005.2
20260903225406 58 325 13.0 26.0 0.00 0.00 0.00 75 1005.2
20260903224406 58 327 9.0 26.0 0.00 0.00 0.00 78 1004.8
20260903223906 58 249 11.0 24.0 0.00 0.00 0.00 79 1004.8
20260903223406 58 301 9.0 26.0 0.00 0.00 0.00 80 1004.9
20260903222906 57 222 10.0 32.0 0.00 0.00 0.00 80 1004.9
20260903222406 57 205 11.0 23.0 0.00 0.00 0.00 80 1004.9
20260903221906 57 230 12.0 28.0 0.00 0.00 0.00 84 1004.9
20260903221405 56 257 9.0 25.0 0.00 0.00 0.00 86 1004.8
20260903220905 56 232 12.0 24.0 0.00 0.00 0.00 86 1004.8
20260903220406 55 222 9.0 22.0 0.00 0.00 0.00 87 1004.8
20260903215906 55 339 9.0 25.0 0.00 0.00 0.00 87 1004.8
20260903215405 56 299 14.0 30.0 0.00 0.00 0.00 86 1004.7
20260903214906 58 350 16.0 29.0 0.00 0.00 0.00 86 1004.7
20260903213906 59 337 9.0 23.0 0.00 0.00 0.00 88 1004.3
20260903213405 59 328 10.0 24.0 0.00 0.00 0.00 88 1004.3
20260903212906 58 314 13.0 28.0 0.00 0.00 0.00 89 1004.3
20260903212406 58 315 12.0 28.0 0.00 0.00 0.00 89 1004.3
20260903211405 58 342 9.0 24.0 0.00 0.00 0.00 90 1004.2
20260903210906 58 302 10.0 23.0 0.00 0.00 0.00 90 1004.1
20260903205906 57 315 11.0 24.0 0.00 0.00 0.00 91 1004.3
20260903205406 57 318 10.0 23.0 0.00 0.00 0.00 90 1004.2
20260903204906 57 309 7.0 20.0 0.00 0.00 0.00 91 1004.3
20260903204406 57 289 12.0 22.0 0.00 0.00 0.00 91 1004.2
20260903203406 57 319 13.0 24.0 0.00 0.00 0.00 91 1004.2
20260903202906 57 327 12.0 29.0 0.00 0.00 0.00 91 1004.2
20260903202405 57 327 11.0 22.0 0.00 0.00 0.00 91 1004.2
20260903201905 58 334 14.0 25.0 0.00 0.00 0.00 91 1004.1
20260903201406 57 328 18.0 35.0 0.00 0.00 0.00 91 1004.0
20260903200906 57 333 19.0 40.0 0.00 0.00 0.00 91 1003.9
20260903200406 58 351 18.0 35.0 0.00 0.00 0.00 91 1004.0
20260903195905 58 339 14.0 25.0 0.00 0.00 0.00 91 1003.9
20260903194905 58 341 17.0 30.0 0.00 0.00 0.00 91 1003.9
20260903194405 58 322 18.0 31.0 0.00 0.00 0.00 91 1004.0
20260903193906 58 348 20.0 32.0 0.00 0.00 0.00 91 1004.1
20260903193406 58 331 21.0 37.0 0.00 0.00 0.00 91 1003.9
20260903192906 58 349 21.0 40.0 0.00 0.00 0.00 91 1003.7
20260903192405 58 341 18.0 32.0 0.00 0.00 0.00 91 1003.6
20260903191906 58 338 21.0 38.0 0.00 0.00 0.00 91 1003.6
20260903191406 58 351 22.0 32.0 0.00 0.00 0.00 91 1003.6
20260903190905 58 345 18.0 33.0 0.00 0.00 0.00 91 1003.5
20260903185905 58 351 17.0 29.0 0.00 0.00 0.00 91 1003.6
20260903185406 58 343 13.0 26.0 0.00 0.00 0.00 91 1003.9
20260903184906 58 347 15.0 24.0 0.00 0.00 0.00 91 1004.1
20260903184406 58 346 14.0 29.0 0.00 0.00 0.00 91 1004.4
20260903183406 58 342 16.0 32.0 0.00 0.00 0.00 91 1004.7
20260903182906 58 342 17.0 28.0 0.00 0.00 0.00 91 1004.7
20260903182405 58 346 15.0 25.0 0.00 0.00 0.00 91 1004.9
20260903181905 58 353 12.0 23.0 0.00 0.00 0.00 91 1005.1
20260903181406 58 333 16.0 29.0 0.00 0.00 0.00 91 1005.4
20260903180905 58 340 14.0 26.0 0.00 0.00 0.00 91 1005.4
20260903180405 58 348 10.0 29.0 0.00 0.00 0.00 91 1005.5
20260903175906 58 346 14.0 28.0 0.00 0.00 0.00 91 1005.7
20260903174406 58 347 17.0 35.0 0.00 0.00 0.00 91 1005.8
20260903173405 58 358 13.0 28.0 0.00 0.00 0.00 91 1005.7
20260903172906 58 349 15.0 30.0 0.00 0.00 0.00 91 1005.6
20260903172405 58 329 18.0 31.0 0.00 0.00 0.00 91 1005.6
20260903171906 58 333 18.0 32.0 0.00 0.00 0.00 91 1005.7
20260903171405 58 336 21.0 37.0 0.00 0.00 0.00 91 1005.7
20260903170906 58 356 17.0 26.0 0.00 0.00 0.00 91 1005.9
20260903170406 58 338 14.0 32.0 0.00 0.00 0.00 91 1006.1
20260903165905 58 348 18.0 29.0 0.00 0.00 0.00 91 1006.3
20260903165406 58 334 17.0 33.0 0.00 0.00 0.00 91 1006.2
20260903164905 58 345 16.0 31.0 0.00 0.00 0.00 91 1006.2
20260903164405 58 339 17.0 31.0 0.00 0.00 0.00 91 1006.2
20260903163906 58 353 16.0 32.0 0.00 0.00 0.00 91 1006.1
20260903163406 58 334 15.0 29.0 0.00 0.00 0.00 91 1006.1
20260903162906 58 356 18.0 33.0 0.00 0.00 0.00 91 1006.1
20260903162406 58 342 18.0 33.0 0.00 0.00 0.00 91 1006.1
20260903160905 58 340 17.0 32.0 0.00 0.00 0.00 91 1006.3
20260903160405 58 346 17.0 31.0 0.00 0.00 0.00 91 1006.5
20260903155406 58 334 17.0 26.0 0.00 0.00 0.00 91 1006.8
20260903154905 58 345 17.0 31.0 0.00 0.00 0.00 91 1006.8
20260903154406 58 350 17.0 26.0 0.00 0.00 0.00 91 1007.0
20260903153905 58 345 17.0 33.0 0.00 0.00 0.00 91 1007.2
20260903153406 58 347 14.0 22.0 0.00 0.00 0.00 91 1007.3
20260903152905 58 347 14.0 30.0 0.00 0.00 0.00 91 1007.4
20260903152405 58 342 15.0 26.0 0.00 0.00 0.00 91 1007.5
20260903151906 58 346 16.0 25.0 0.00 0.00 0.00 91 1007.6
20260903151405 58 336 12.0 24.0 0.00 0.00 0.00 91 1007.7
20260903150406 58 331 12.0 23.0 0.00 0.00 0.00 91 1008.0
20260903145905 58 342 14.0 22.0 0.00 0.00 0.00 91 1008.2
20260903144905 58 346 14.0 26.0 0.00 0.00 0.00 91 1008.3
20260903144406 58 336 12.0 23.0 0.00 0.00 0.00 91 1008.4
20260903143908 58 351 13.0 21.0 0.00 0.00 0.00 91 1008.6
20260903143405 58 333 11.0 25.0 0.00 0.00 0.00 91 1008.7
20260903142905 58 338 14.0 29.0 0.00 0.00 0.00 91 1008.8
20260903142405 58 342 13.0 23.0 0.00 0.00 0.00 91 1008.9
20260903141906 58 344 16.0 24.0 0.00 0.00 0.00 91 1009.0
20260903141405 58 350 14.0 28.0 0.00 0.00 0.00 91 1009.1
20260903140906 58 344 12.0 24.0 0.00 0.00 0.00 91 1009.2
20260903135905 58 343 12.0 23.0 0.00 0.00 0.00 91 1009.4
20260903134405 58 347 11.0 24.0 0.00 0.00 0.00 91 1009.4
20260903133906 58 353 12.0 25.0 0.00 0.00 0.00 91 1009.5
20260903133406 58 345 14.0 26.0 0.00 0.00 0.00 91 1009.5
20260903132905 58 350 16.0 26.0 0.00 0.00 0.00 91 1009.3
20260903131905 58 331 10.0 31.0 0.00 0.00 0.00 91 1009.4
20260903131406 58 332 13.0 24.0 0.00 0.00 0.00 91 1009.5
20260903130906 58 338 12.0 22.0 0.00 0.00 0.00 91 1009.6
20260903130405 58 344 10.0 20.0 0.00 0.00 0.00 91 1009.6
20260903125906 58 350 10.0 20.0 0.00 0.00 0.00 91 1009.5
20260903124405 58 2 13.0 22.0 0.00 0.00 0.00 91 1009.6
20260903123906 58 355 14.0 29.0 0.00 0.00 0.00 91 1009.6
20260903123406 58 343 15.0 23.0 0.00 0.00 0.00 91 1009.7
20260903121910 58 349 11.0 21.0 0.00 0.00 0.00 91 1009.7
20260903121406 58 349 14.0 20.0 0.00 0.00 0.00 91 1009.8
20260903120406 58 358 13.0 21.0 0.00 0.00 0.00 91 1010.0
20260903115905 58 358 11.0 21.0 0.00 0.00 0.00 91 1010.1
20260903115407 58 353 9.0 16.0 0.00 0.00 0.00 91 1010.1
20260903114405 58 352 12.0 22.0 0.00 0.00 0.00 91 1010.3
20260903112905 57 348 6.0 14.0 0.00 0.00 0.00 91 1010.5